Find Starlink 35282

NORAD ID: 65658 Int'l Des: 2025-211 Owner: SPXS Country: US Constellation: starlink operational
LEOCIRCULARRETROGRADESSO

实时位置

正在加载3D地球...

关于 Starlink 35282

正在加载描述...

即将过境

Passes for default location (London). Set your location on the main map for personalized predictions.

高度历史

Loading altitude history...

两行轨道根数

1 65658U 25211G 26107.11857658 .00004062 00000-0 28554-3 0 9997
2 65658 97.6033 151.9367 0001578 96.7241 263.4166 15.05654333 32820
Epoch: Apr 17, 2026 • Age: 14 hours

当前状态

高度 555.7 km
速度 7.58 km/s
星下点 -13.84°S, 51.47°E
发射日期 Sep 19, 2025
运行时间 0.5 years
类型 internet

技术详情

分类 Payload
质量 575.00 kg
干质量 530.00 kg
总质量 575.00 kg
长度 0.30 m
直径 4.10 m
跨度 29.00 m
形状 Box + pan
制造商 SPXS
平台类型 Starlink V2MO
阶段状态 In Orbit
所有者/国家 SPXS/US

Most Searched